Regional Weather Roundup
Issued by NWS

Home | Current Version | Previous Version | Graphics & Text | Print | Product List | Glossary On
Versions: 1 2 3 4 5 6 7 8 9 10 11 12 13 14 15 16 17 18 19 20 21 22 23 24 25 26 27
000
ASUS45 KCYS 242010
RWRWY

WYOMING REGIONAL WEATHER ROUNDUP
NATIONAL WEATHER SERVICE CHEYENNE WY
200 PM MDT TUE APR 24 2018

NOTE:  "FAIR" INDICATES FEW OR NO CLOUDS BELOW 12,000 FEET
WITH NO SIGNIFICANT WEATHER AND/OR OBSTRUCTIONS TO VISIBILITY.

WYZ001-242100-
YELLOWSTONE NATIONAL PARK

CITY           SKY/WX    TMP DP  RH WIND       PRES   REMARKS
LK YELLOWSTONE   N/A     35  14  42 VRB5      30.46F WCI  31
W YELLOWSTONE  NOT AVBL

$$
WYZ002>013-054>058-071-098>099-242100-
NORTHERN WYOMING

CITY           SKY/WX    TMP DP  RH WIND       PRES   REMARKS
JACKSON        FAIR      47  21  35 VRB5      30.39F
CODY           FAIR      48  21  34 N7        30.45F
GREYBULL       FAIR      49  27  42 CALM      30.45F
WORLAND        PTSUNNY   46  25  43 CALM      30.46F
SHERIDAN       FAIR      51  27  39 VRB3      30.46F
BUFFALO        FAIR      46  22  38 VRB6      30.46F
GILLETTE       FAIR      45  27  49 N12       30.46F
HULETT         MOCLDY    43  28  56 N5        30.47F
NEWCASTLE      FAIR      43  21  42 N15       30.46S

$$
WYZ014>020-022>026-101>103-242100-
CENTRAL WYOMING

CITY           SKY/WX    TMP DP  RH WIND       PRES   REMARKS
BIG PINEY      PTSUNNY   43  21  41 VRB5      30.41F
PINEDALE       CLOUDY    41  21  45 N5        30.41F
DUBOIS         FAIR      41  25  52 E3        30.41F
LANDER         CLOUDY    42  25  50 NE9       30.44F
RIVERTON       CLOUDY    40  23  50 VRB3      30.46F
CASPER         CLOUDY    40  21  46 N12       30.46F WCI  33
DOUGLAS        CLOUDY    39  27  62 N12       30.46F WCI  32

$$
WYZ021-027>030-104>119-242100-
SOUTHERN WYOMING

CITY           SKY/WX    TMP DP  RH WIND       PRES   REMARKS
EVANSTON       FAIR      48  23  37 NE9G18    30.36F
KEMMERER       FAIR      45  19  36 E8        30.40S
FORT BRIDGER   FAIR      47  22  37 E14       30.41F
ROCK SPRINGS   PTSUNNY   43  19  38 NE7G24    30.40F
DIXON          FAIR      49  20  32 NE7       30.34F
RAWLINS        CLOUDY    37  20  50 N14       30.42S WCI  28
SARATOGA       FAIR      41  19  42 N9G21     30.38F
LARAMIE        PTSUNNY   36  20  52 N14G22    30.37S WCI  27
CHEYENNE       CLOUDY    36  25  64 N17G26    30.38F WCI  26
TORRINGTON     CLOUDY    42  30  62 N14G20    30.42F
PINE BLUFFS    CLOUDY    41  30  65 N17G25    30.40F

$$




USA.gov is the U.S. government's official web portal to all federal, state and local government web resources and services.